This demonstration page uses our WeatherBlox Daily Observations layout. Learn more.

Left ArrowRight Arrow

39.29038, -76.61219

Hourly Observations for September 23, 2020

Temp ( °F °C ) Dew Point ( °F °C ) Humidity (%) Winds ( mph kmh ) Pressure ( in mb ) Visibility ( mi km ) Precip ( " mm )
12:54 am 00:54 Partly Cloudy 54 12.2 44 6.7 69 69 W 6 9 29.99 1016 10 16 0.00 0.00
1:54 am 01:54 Partly Cloudy 54 12.2 45 7.2 72 72 W 6 9 29.98 1015 10 16 0.00 0.00
2:54 am 02:54 Partly Cloudy 54 12.2 45 7.2 72 72 WSW 3 6 29.98 1015 10 16 0.00 0.00
3:54 am 03:54 Partly Cloudy 53 11.7 44 6.7 72 72 W 7 11 29.98 1015 10 16 0.00 0.00
4:54 am 04:54 Mostly Clear 53 11.7 44 6.7 72 72 W 8 13 29.98 1015 10 16 0.00 0.00
5:54 am 05:54 Mostly Clear 52 11.1 44 6.7 75 75 W 7 11 29.99 1016 10 16 0.00 0.00
6:54 am 06:54 Mostly Clear 51 10.6 44 6.7 77 77 W 6 9 30.00 1016 10 16 0.00 0.00
7:54 am 07:54 Sunny 57 13.9 46 7.8 67 67 W 7 11 30.00 1016 10 16 0.00 0.00
8:54 am 08:54 Sunny 63 17.2 47 8.3 56 56 W 12 19 30.01 1016 10 16 0.00 0.00
9:54 am 09:54 Sunny 69 20.6 49 9.4 49 49 W 9 15 30.01 1016 10 16 0.00 0.00
10:54 am 10:54 Sunny 72 22.2 48 8.9 43 43 WNW 9 15 30.01 1016 10 16 0.00 0.00
11:54 am 11:54 Sunny 75 23.9 50 10 41 41 W 9 15 30.00 1016 10 16 0.00 0.00
12:54 pm 12:54 Sunny 77 25 51 10.6 40 40 WNW 14 22 29.98 1015 10 16 0.00 0.00
1:54 pm 13:54 Sunny 79 26.1 51 10.6 38 38 W 12 19 29.96 1014 10 16 0.00 0.00
2:54 pm 14:54 Sunny 80 26.7 52 11.1 38 38 W 13 20 29.93 1014 10 16 0.00 0.00
3:54 pm 15:54 Mostly Sunny 80 26.7 52 11.1 38 38 W 12 19 29.92 1013 10 16 0.00 0.00
4:54 pm 16:54 Mostly Sunny 80 26.7 53 11.7 39 39 WSW 14 22 29.91 1013 10 16 0.00 0.00
5:54 pm 17:54 Partly Cloudy 79 26.1 53 11.7 41 41 WSW 8 13 29.91 1013 10 16 0.00 0.00
6:54 pm 18:54 Sunny 75 23.9 54 12.2 48 48 SSW 6 9 29.92 1013 10 16 0.00 0.00
7:54 pm 19:54 Mostly Cloudy 72 22.2 54 12.2 53 53 SW 5 7 29.93 1014 10 16 0.00 0.00
8:54 pm 20:54 Mostly Cloudy 70 21.1 53 11.7 55 55 WSW 6 9 29.96 1014 10 16 0.00 0.00
9:54 pm 21:54 Mostly Cloudy 65 18.3 53 11.7 66 66 WSW 5 7 29.97 1015 10 16 0.00 0.00
10:54 pm 22:54 Mostly Cloudy 65 18.3 52 11.1 63 63 WSW 6 9 29.96 1015 10 16 0.00 0.00
11:54 pm 23:54 Mostly Cloudy 62 16.7 52 11.1 70 70 WSW 5 7 29.97 1015 10 16 0.00 0.00

Powered by AerisWeather